TimeEDT,TemperatureF,Dew PointF,Humidity,Sea Level PressureIn,VisibilityMPH,Wind Direction,Wind SpeedMPH,Gust SpeedMPH,PrecipitationIn,Events,Conditions,WindDirDegrees,DateUTC
12:15 AM,69.8,64.4,83,30.06,10.0,WSW,10.4,-,N/A,,Clear,240,2013-06-13 04:15:00
12:35 AM,69.8,64.4,83,30.06,10.0,WSW,15.0,-,N/A,,Clear,250,2013-06-13 04:35:00
12:55 AM,69.8,64.4,83,30.06,10.0,WSW,12.7,19.6,N/A,,Clear,250,2013-06-13 04:55:00
1:15 AM,69.8,64.4,83,30.05,10.0,WSW,15.0,-,N/A,,Clear,250,2013-06-13 05:15:00
1:35 AM,69.8,64.4,83,30.05,10.0,WSW,12.7,-,N/A,,Scattered Clouds,250,2013-06-13 05:35:00
1:55 AM,69.8,64.4,83,30.04,10.0,WSW,16.1,-,N/A,,Scattered Clouds,250,2013-06-13 05:55:00
2:15 AM,69.8,66.2,88,30.04,10.0,West,19.6,24.2,N/A,,Mostly Cloudy,260,2013-06-13 06:15:00
2:35 AM,69.8,66.2,88,30.03,10.0,West,17.3,20.7,N/A,,Overcast,260,2013-06-13 06:35:00
2:55 AM,69.8,66.2,88,30.01,10.0,West,17.3,26.5,N/A,,Overcast,270,2013-06-13 06:55:00
3:15 AM,68.0,66.2,94,30.00,10.0,West,17.3,24.2,N/A,,Overcast,270,2013-06-13 07:15:00
3:35 AM,68.0,66.2,94,29.99,10.0,West,17.3,26.5,N/A,,Mostly Cloudy,260,2013-06-13 07:35:00
3:55 AM,68.0,66.2,94,29.98,10.0,West,20.7,27.6,N/A,,Overcast,270,2013-06-13 07:55:00
4:15 AM,68.0,66.2,94,29.96,10.0,West,20.7,-,N/A,,Overcast,260,2013-06-13 08:15:00
4:35 AM,68.0,66.2,94,29.95,10.0,West,20.7,31.1,N/A,,Overcast,260,2013-06-13 08:35:00
4:55 AM,68.0,66.2,94,29.95,10.0,West,18.4,29.9,N/A,,Overcast,260,2013-06-13 08:55:00
5:15 AM,68.0,66.2,94,29.94,10.0,West,21.9,28.8,N/A,,Overcast,260,2013-06-13 09:15:00
5:35 AM,68.0,66.2,94,29.92,10.0,West,21.9,31.1,N/A,,Overcast,260,2013-06-13 09:35:00
5:55 AM,66.2,66.2,100,29.91,10.0,West,21.9,33.4,N/A,,Overcast,260,2013-06-13 09:55:00
6:15 AM,66.2,66.2,100,29.91,10.0,West,21.9,28.8,N/A,,Overcast,260,2013-06-13 10:15:00
6:35 AM,66.2,66.2,100,29.91,10.0,West,21.9,33.4,N/A,,Overcast,260,2013-06-13 10:35:00
6:55 AM,66.2,64.4,94,29.91,10.0,West,23.0,33.4,N/A,,Overcast,270,2013-06-13 10:55:00
7:15 AM,66.2,64.4,94,29.90,10.0,West,26.5,40.3,N/A,,Overcast,260,2013-06-13 11:15:00
7:35 AM,66.2,64.4,94,29.89,10.0,West,25.3,33.4,N/A,,Overcast,260,2013-06-13 11:35:00
7:55 AM,68.0,64.4,88,29.89,10.0,West,25.3,41.4,N/A,,Mostly Cloudy,260,2013-06-13 11:55:00
8:15 AM,68.0,64.4,88,29.89,10.0,West,24.2,33.4,N/A,,Mostly Cloudy,260,2013-06-13 12:15:00
8:35 AM,68.0,64.4,88,29.91,10.0,West,19.6,29.9,N/A,,Mostly Cloudy,270,2013-06-13 12:35:00
8:55 AM,66.2,64.4,94,29.93,10.0,WNW,13.8,25.3,N/A,,Overcast,290,2013-06-13 12:55:00
9:15 AM,68.0,66.2,94,29.93,10.0,West,16.1,26.5,N/A,,Mostly Cloudy,280,2013-06-13 13:15:00
9:35 AM,64.4,59.0,83,29.92,0.5,NNE,6.9,25.3,N/A,Thunderstorm,Haze,30,2013-06-13 13:35:00
9:55 AM,64.4,57.2,77,29.91,10.0,NNE,10.4,-,N/A,Thunderstorm,Overcast,30,2013-06-13 13:55:00
10:15 AM,64.4,57.2,77,29.89,10.0,West,3.5,-,N/A,,Overcast,280,2013-06-13 14:15:00
10:35 AM,64.4,59.0,83,29.90,10.0,WNW,5.8,-,N/A,,Overcast,300,2013-06-13 14:35:00
10:55 AM,66.2,62.6,88,29.88,10.0,West,12.7,23.0,N/A,,Overcast,270,2013-06-13 14:55:00
11:15 AM,71.6,64.4,78,29.86,10.0,SW,12.7,-,N/A,Thunderstorm,Mostly Cloudy,230,2013-06-13 15:15:00
11:35 AM,69.8,64.4,83,29.85,10.0,WSW,9.2,21.9,N/A,,Overcast,240,2013-06-13 15:35:00
11:55 AM,68.0,64.4,88,29.84,10.0,SW,19.6,24.2,N/A,Thunderstorm,Overcast,230,2013-06-13 15:55:00
12:15 PM,64.4,64.4,100,29.84,7.0,West,15.0,20.7,0.02,Rain-Thunderstorm,Light Thunderstorms and Rain,260,2013-06-13 16:15:00
12:35 PM,62.6,60.8,94,29.84,10.0,WSW,23.0,35.7,0.16,Rain-Thunderstorm,Rain,250,2013-06-13 16:35:00
12:55 PM,64.4,60.8,88,29.82,10.0,WSW,21.9,27.6,N/A,,Scattered Clouds,250,2013-06-13 16:55:00
1:15 PM,64.4,62.6,94,29.81,10.0,West,20.7,28.8,N/A,,Clear,260,2013-06-13 17:15:00
1:35 PM,64.4,62.6,94,29.81,5.0,West,27.6,40.3,0.04,,Mostly Cloudy,260,2013-06-13 17:35:00
1:55 PM,62.6,60.8,94,29.80,10.0,West,19.6,32.2,N/A,Rain-Thunderstorm,Light Thunderstorms and Rain,260,2013-06-13 17:55:00
2:15 PM,62.6,62.6,100,29.80,0.5,NW,15.0,25.3,0.02,Fog,Fog,310,2013-06-13 18:15:00
2:35 PM,60.8,60.8,100,29.80,5.0,WNW,20.7,32.2,0.16,Rain-Thunderstorm,Light Thunderstorms and Rain,290,2013-06-13 18:35:00
2:55 PM,60.8,60.8,100,29.80,10.0,West,19.6,26.5,N/A,,Overcast,270,2013-06-13 18:55:00
3:15 PM,60.8,60.8,100,29.81,1.5,West,15.0,-,0.01,Rain-Thunderstorm,Light Thunderstorms and Rain,260,2013-06-13 19:15:00
3:35 PM,60.8,59.0,94,29.80,10.0,WSW,19.6,25.3,0.01,,Mostly Cloudy,250,2013-06-13 19:35:00
3:55 PM,60.8,59.0,94,29.79,1.0,West,20.7,26.5,N/A,,Overcast,260,2013-06-13 19:55:00
4:15 PM,60.8,59.0,94,29.77,0.2,West,18.4,28.8,N/A,,Drizzle,270,2013-06-13 20:15:00
4:35 PM,60.8,60.8,100,29.75,0.2,West,25.3,33.4,N/A,,Drizzle,280,2013-06-13 20:35:00
4:55 PM,60.8,60.8,100,29.75,0.2,West,21.9,32.2,N/A,,Drizzle,280,2013-06-13 20:55:00
5:15 PM,60.8,60.8,100,29.75,3.0,West,23.0,31.1,N/A,,Light Drizzle,280,2013-06-13 21:15:00
5:35 PM,60.8,60.8,100,29.76,7.0,West,23.0,32.2,N/A,,Overcast,280,2013-06-13 21:35:00
5:55 PM,60.8,60.8,100,29.77,10.0,West,20.7,29.9,N/A,,Overcast,280,2013-06-13 21:55:00
6:15 PM,60.8,60.8,100,29.77,10.0,West,21.9,34.5,0.01,,Overcast,270,2013-06-13 22:15:00
6:35 PM,60.8,60.8,100,29.77,10.0,West,20.7,31.1,0.01,,Overcast,280,2013-06-13 22:35:00
6:55 PM,60.8,60.8,100,29.78,10.0,West,16.1,24.2,N/A,,Overcast,280,2013-06-13 22:55:00
7:15 PM,60.8,59.0,94,29.79,7.0,WNW,13.8,26.5,N/A,Rain,Light Rain,300,2013-06-13 23:15:00
7:35 PM,60.8,59.0,94,29.80,10.0,NW,21.9,29.9,N/A,Rain,Light Rain,310,2013-06-13 23:35:00
7:55 PM,60.8,57.2,88,29.81,10.0,NW,18.4,26.5,N/A,,Overcast,310,2013-06-13 23:55:00
8:15 PM,59.0,57.2,94,29.82,10.0,WNW,12.7,32.2,0.01,,Overcast,300,2013-06-14 00:15:00
8:35 PM,57.2,57.2,100,29.83,10.0,NW,12.7,31.1,0.01,,Overcast,320,2013-06-14 00:35:00
8:55 PM,57.2,55.4,94,29.84,10.0,NW,18.4,28.8,N/A,,Overcast,320,2013-06-14 00:55:00
9:15 PM,57.2,53.6,88,29.85,10.0,NW,17.3,32.2,N/A,,Overcast,310,2013-06-14 01:15:00
9:35 PM,55.4,53.6,94,29.87,10.0,NW,15.0,29.9,N/A,,Mostly Cloudy,320,2013-06-14 01:35:00
9:55 PM,55.4,53.6,94,29.87,10.0,NW,12.7,19.6,N/A,,Mostly Cloudy,310,2013-06-14 01:55:00
10:15 PM,55.4,51.8,88,29.87,10.0,WNW,12.7,23.0,N/A,,Mostly Cloudy,300,2013-06-14 02:15:00
10:16 PM,55.4,51.8,88,29.87,10.0,WNW,10.4,23.0,N/A,,Mostly Cloudy,300,2013-06-14 02:16:00
10:35 PM,55.4,51.8,88,29.88,10.0,WNW,16.1,23.0,N/A,,Mostly Cloudy,300,2013-06-14 02:35:00
10:55 PM,55.4,51.8,88,29.87,10.0,WNW,12.7,23.0,N/A,,Mostly Cloudy,290,2013-06-14 02:55:00
11:15 PM,55.4,51.8,88,29.87,10.0,WNW,12.7,24.2,N/A,,Overcast,290,2013-06-14 03:15:00
11:35 PM,55.4,51.8,88,29.87,10.0,NW,16.1,24.2,N/A,,Mostly Cloudy,310,2013-06-14 03:35:00
11:55 PM,53.6,51.8,94,29.89,10.0,WNW,19.6,26.5,N/A,,Scattered Clouds,290,2013-06-14 03:55:00